This is the latest recevied weather packets stored in our database for station/object N5CSU. If no packets are shown the sender has not sent any weather packets the latest 10 day(s).
| Time | Temp. | Humidity | Pressure | Rain* | Wind** | Luminosity | Snow |
|---|---|---|---|---|---|---|---|
| 1777924356 | 26.11° C | 58% | 1010.4 hPa | 0 mm | - | 19 W/m² | - |
| 1777924053 | 26.11° C | 57% | 1010 hPa | 0 mm | - | 19 W/m² | - |
| 1777923749 | 26.11° C | 57% | 1010.2 hPa | 0 mm | - | 29 W/m² | - |
| 1777923446 | 26.11° C | 59% | 1010.2 hPa | 0 mm | - | 49 W/m² | - |
| 1777923143 | 26.11° C | 58% | 1010.3 hPa | 0 mm | - | 73 W/m² | - |
| 1777922842 | 26.11° C | 58% | 1010.4 hPa | 0 mm | - | 72 W/m² | - |
| 1777922539 | 25.56° C | 57% | 1010.6 hPa | 0 mm | - | 103 W/m² | - |
| 1777922238 | 25.56° C | 58% | 1010.7 hPa | 0 mm | - | 73 W/m² | - |
| 1777921934 | 26.11° C | 56% | 1010.6 hPa | 0 mm | - | 23 W/m² | - |
| 1777921629 | 26.11° C | 55% | 1010.6 hPa | 0 mm | - | 98 W/m² | - |
| 1777921326 | 25.56° C | 56% | 1010.8 hPa | 0 mm | - | 14 W/m² | - |
| 1777921023 | 25.56° C | 57% | 1010.8 hPa | 0 mm | - | 14 W/m² | - |
| 1777920719 | 25.56° C | 57% | 1010.8 hPa | 0 mm | - | 47 W/m² | - |
| 1777920416 | 25.56° C | 56% | 1010.9 hPa | 0 mm | - | 125 W/m² | - |
| 1777920110 | 25.56° C | 55% | 1010.9 hPa | 0 mm | - | 17 W/m² | - |
| 1777919808 | 25° C | 58% | 1011 hPa | 0 mm | - | 55 W/m² | - |
| 1777919505 | 25.56° C | 55% | 1011 hPa | 0 mm | - | 27 W/m² | - |
| 1777919203 | 25° C | 56% | 1011.1 hPa | 0 mm | - | 53 W/m² | - |
| 1777918900 | 25° C | 55% | 1011.5 hPa | 0 mm | - | 33 W/m² | - |
| 1777918597 | 25° C | 55% | 1011.4 hPa | 0 mm | - | 26 W/m² | - |
| 1777918295 | 25° C | 56% | 1011.5 hPa | 0 mm | - | 45 W/m² | - |
| 1777917994 | 25° C | 55% | 1011.5 hPa | 0 mm | - | 22 W/m² | - |
| 1777917692 | 25° C | 53% | 1011.3 hPa | 0 mm | - | 27 W/m² | - |
| 1777917389 | 25° C | 54% | 1011.6 hPa | 0 mm | - | 35 W/m² | - |
| 1777917085 | 25° C | 53% | 1011.9 hPa | 0 mm | - | 267 W/m² | - |
* Rain latest hour (hover to see other rain measurements)
** Current wind speed in m/s (hover to see current wind gust speed)